Regional Weather Roundup
Issued by NWS Raleigh/Durham, NC

Home | Current Version | Previous Version | Text Only | Print | Product List | Glossary On
Versions: 1 2 3 4 5 6 7 8 9 10 11 12 13 14 15 16 17 18 19 20 21 22 23 24 25 26 27
000
ASUS42 KRAH 270810
RWRRAH
NORTH CAROLINA WEATHER ROUNDUP
NATIONAL WEATHER SERVICE RALEIGH NC
400 AM EDT THU JUL 27 2017

NOTE: "FAIR" INDICATES FEW OR NO CLOUDS BELOW 12,000 FEET WITH NO
SIGNIFICANT WEATHER AND/OR OBSTRUCTIONS TO VISIBILITY.

NCZ001-053-055-056-065-067-270900-
WESTERN NORTH CAROLINA

CITY           SKY/WX    TMP DP  RH WIND       PRES   REMARKS
ASHEVILLE      CLOUDY    71  71 100 SE7       30.14F
JEFFERSON      CLOUDY    65  64  97 CALM      30.17F FOG
MORGANTON      CLOUDY    71  71 100 CALM      30.13F FOG
HICKORY        MOCLDY    72  71  97 CALM      30.09S
RUTHERFORDTON  CLOUDY    70  70 100 CALM      30.09F FOG
MOUNT AIRY     CLOUDY    73  68  85 CALM      30.10S
BOONE          CLOUDY    65  65  99 CALM      30.18F
$$

NCZ021-022-025-041-071-084-088-270900-
CENTRAL NORTH CAROLINA

CITY           SKY/WX    TMP DP  RH WIND       PRES   REMARKS
CHARLOTTE      MOCLDY    75  74  96 S8        30.08F
GREENSBORO     PTCLDY    74  71  91 SW7       30.07F
WINSTON-SALEM  PTCLDY    74  72  93 S7        30.08F
RALEIGH-DURHAM PTCLDY    75  67  76 S5        30.07F
FORT BRAGG     CLEAR     74  68  80 CALM      30.06F
FAYETTEVILLE   PTCLDY    72  71  97 SE5       30.06F
BURLINGTON     CLEAR     71  69  93 CALM      30.07S
LAURINBURG     CLEAR     71  70  96 NE5       30.08F
$$

NCZ011-015-027-028-043-044-047-080-103-270900-
NORTHEASTERN NORTH CAROLINA

CITY           SKY/WX    TMP DP  RH WIND       PRES   REMARKS
ROCKY MT-WILSO CLEAR     68  68 100 CALM      30.07F
GREENVILLE     CLEAR     72  68  88 CALM      30.09F
WASHINGTON     MOCLDY    69  67  93 CALM      30.08F
ELIZABETH CITY CLEAR     70  69  97 S3        30.07F
MANTEO         CLEAR     68  65  90 CALM      30.08F
CAPE HATTERAS  CLEAR     72  67  84 NE3       30.08F
$$

NCZ078-087-090-091-093-098-101-270900-
SOUTHEASTERN NORTH CAROLINA

CITY           SKY/WX    TMP DP  RH WIND       PRES   REMARKS
LUMBERTON      PTCLDY    70  69  97 CALM      30.07S
GOLDSBORO      PTCLDY    71  71 100 E3        30.06F
KINSTON        CLOUDY    73  67  81 CALM      30.08F
KENANSVILLE    CLEAR     66  66 100 CALM      30.08F FOG
NEW BERN       PTCLDY    68  68 100 S3        30.08F
CHERRY POINT   CLEAR     70  67  90 SE6       30.08F
BEAUFORT       CLEAR     72  71  97 NE5       30.08S
JACKSONVILLE   PTCLDY    74  72  93 E6        30.06F
WILMINGTON     CLEAR     71  70  96 NE3       30.07S
$$





USA.gov is the U.S. government's official web portal to all federal, state and local government web resources and services.